Date,TemperatureHighF,TemperatureAvgF,TemperatureLowF,DewpointHighF,DewpointAvgF,DewpointLowF,HumidityHigh,HumidityAvg,HumidityLow,PressureMaxIn,PressureMinIn,WindSpeedMaxMPH,WindSpeedAvgMPH,GustSpeedMaxMPH,PrecipitationSumIn
2013-4-1,47.0,38.4,27.0,25.0,23.3,21.0,79,56,37,0.00,40.00,14,6,16,0.00
2013-4-2,51.0,40.7,31.0,23.0,18.1,13.0,66,42,22,0.00,40.00,17,5,20,0.00
2013-4-3,58.0,48.0,38.0,27.0,18.2,11.0,52,31,19,0.00,40.00,24,7,29,0.00
2013-4-4,61.0,51.1,40.0,26.0,23.8,20.0,57,35,23,0.00,40.00,26,10,33,0.00
2013-4-5,57.0,48.6,39.0,32.0,23.6,16.0,50,37,25,0.00,40.00,34,17,44,0.00
2013-4-6,54.0,42.6,36.0,32.0,20.1,11.0,70,41,24,0.00,40.00,31,10,37,0.00
2013-4-7,52.0,40.7,35.0,32.0,25.2,19.0,88,55,32,0.00,40.00,39,21,52,0.01
2013-4-8,39.0,25.1,11.0,29.0,20.6,9.0,98,85,52,0.00,40.00,18,9,22,1.41
2013-4-9,14.0,10.4,8.0,12.0,8.4,6.0,93,91,90,0.00,40.00,17,11,23,1.11
2013-4-10,35.0,20.7,9.0,21.0,13.5,8.0,92,75,48,0.00,40.00,14,4,17,0.00
2013-4-11,44.0,34.6,18.0,31.0,25.3,17.0,97,69,53,0.00,40.00,14,4,16,0.04
2013-4-12,43.0,33.6,26.0,30.0,25.6,11.0,99,75,31,0.00,40.00,25,5,28,0.01
2013-4-13,44.0,38.5,29.0,33.0,21.8,6.0,80,52,34,0.00,40.00,51,23,70,0.00
2013-4-14,37.0,28.3,20.0,25.0,11.2,-2.0,97,55,22,0.00,40.00,24,9,32,0.01
2013-4-15,24.0,21.2,18.0,22.0,18.1,15.0,94,87,74,0.00,40.00,16,6,19,0.22
2013-4-16,19.0,16.3,14.0,17.0,13.9,11.0,95,90,82,0.00,40.00,21,10,24,0.48
2013-4-17,20.0,15.3,11.0,17.0,12.9,9.0,95,90,76,0.00,40.00,13,7,16,0.21
2013-4-18,37.0,24.6,10.0,15.0,7.3,-5.0,94,52,22,0.00,40.00,9,2,10,0.00
2013-4-19,47.0,36.8,28.0,29.0,18.6,9.0,71,48,30,0.00,40.00,29,12,37,0.00
2013-4-20,49.0,41.2,34.0,29.0,23.9,18.0,68,51,34,0.00,40.00,22,7,27,0.00
2013-4-21,51.0,41.4,33.0,29.0,21.9,17.0,71,47,29,0.00,40.00,35,16,46,0.00
2013-4-22,39.0,20.5,15.0,29.0,18.9,14.0,97,93,63,0.00,40.00,16,8,21,0.46
2013-4-23,36.0,23.0,7.0,18.0,11.8,4.0,94,66,31,0.00,40.00,9,3,10,0.02
2013-4-24,48.0,34.8,23.0,21.0,11.9,3.0,66,40,19,0.00,40.00,9,3,17,0.00
2013-4-25,55.0,45.6,36.0,17.0,6.5,-4.0,28,20,11,0.00,40.00,24,10,29,0.00
2013-4-26,63.0,50.6,39.0,20.0,13.3,9.0,36,23,12,0.00,40.00,18,5,22,0.00
2013-4-27,67.0,55.5,44.0,22.0,17.3,12.0,31,23,14,0.00,40.00,22,7,26,0.00
2013-4-28,65.0,55.0,46.0,27.0,21.7,15.0,42,28,15,0.00,40.00,29,14,34,0.00
2013-4-29,62.0,51.1,42.0,30.0,20.3,7.0,45,30,21,0.00,40.00,42,17,60,0.00
2013-4-30,49.0,33.9,24.0,31.0,27.0,16.0,99,79,27,0.00,40.00,23,8,29,0.14